TimeCST,TemperatureF,Dew PointF,Humidity,Sea Level PressureIn,VisibilityMPH,Wind Direction,Wind SpeedMPH,Gust SpeedMPH,PrecipitationIn,Events,Conditions,WindDirDegrees,DateUTC
12:52 AM,55.9,53.1,90,29.96,3.0,North,8.1,-,0.06,Rain,Heavy Rain,350,2012-12-04 06:52:00
1:01 AM,55.4,53.6,94,29.96,2.5,North,8.1,-,0.06,Rain,Heavy Rain,350,2012-12-04 07:01:00
1:52 AM,55.0,52.0,89,29.99,3.0,NW,9.2,-,0.40,Rain,Rain,320,2012-12-04 07:52:00
2:01 AM,55.4,51.8,88,30.00,2.5,NNW,10.4,-,0.06,Rain,Heavy Rain,330,2012-12-04 08:01:00
2:08 AM,55.4,51.8,88,30.00,4.0,NNW,10.4,-,0.10,Rain,Heavy Rain,330,2012-12-04 08:08:00
2:28 AM,53.6,50.0,88,30.00,4.0,North,11.5,-,0.19,Rain,Rain,360,2012-12-04 08:28:00
2:40 AM,53.6,48.2,82,30.00,6.0,North,12.7,-,0.21,Rain,Rain,350,2012-12-04 08:40:00
2:47 AM,51.8,48.2,88,30.00,6.0,North,12.7,-,0.23,Rain,Rain,360,2012-12-04 08:47:00
2:52 AM,52.0,48.0,86,30.00,5.0,North,12.7,-,0.25,Rain,Heavy Rain,360,2012-12-04 08:52:00
3:38 AM,51.8,48.2,88,30.01,6.0,NNW,8.1,-,0.10,Rain,Rain,340,2012-12-04 09:38:00
3:52 AM,51.1,48.0,89,30.02,7.0,NNW,10.4,-,0.12,Rain,Rain,340,2012-12-04 09:52:00
4:14 AM,51.8,46.4,82,30.03,8.0,NNW,6.9,-,0.02,Rain,Light Rain,340,2012-12-04 10:14:00
4:52 AM,51.1,46.0,83,30.03,10.0,North,9.2,-,0.04,Rain,Light Rain,350,2012-12-04 10:52:00
5:52 AM,51.1,44.1,77,30.07,10.0,North,5.8,-,0.00,,Overcast,350,2012-12-04 11:52:00
6:52 AM,50.0,42.1,74,30.10,10.0,NNW,5.8,-,N/A,,Partly Cloudy,330,2012-12-04 12:52:00
7:52 AM,48.9,42.1,77,30.12,10.0,NNW,5.8,-,N/A,,Clear,340,2012-12-04 13:52:00
8:52 AM,50.0,42.1,74,30.16,10.0,NNW,4.6,-,N/A,,Clear,330,2012-12-04 14:52:00
9:52 AM,52.0,41.0,66,30.17,10.0,NNW,4.6,-,N/A,,Clear,330,2012-12-04 15:52:00
10:52 AM,54.0,41.0,62,30.18,10.0,NNW,6.9,-,N/A,,Clear,330,2012-12-04 16:52:00
11:52 AM,55.9,41.0,57,30.17,10.0,NNW,6.9,-,N/A,,Clear,340,2012-12-04 17:52:00
12:52 PM,57.0,39.0,51,30.16,10.0,NNW,9.2,-,N/A,,Clear,340,2012-12-04 18:52:00
1:52 PM,57.9,39.0,49,30.17,10.0,NNW,9.2,-,N/A,,Clear,340,2012-12-04 19:52:00
2:52 PM,57.9,39.0,49,30.18,10.0,NNW,8.1,-,N/A,,Clear,330,2012-12-04 20:52:00
3:52 PM,54.0,39.9,59,30.21,10.0,West,4.6,-,N/A,,Clear,280,2012-12-04 21:52:00
4:52 PM,51.8,39.2,62,30.21,10.0,SSW,3.5,-,N/A,,Clear,210,2012-12-04 22:52:00
5:52 PM,46.0,39.0,76,30.23,10.0,SW,4.6,-,N/A,,Clear,230,2012-12-04 23:52:00
6:52 PM,46.0,39.0,76,30.24,10.0,SW,4.6,-,N/A,,Clear,230,2012-12-05 00:52:00
7:52 PM,45.0,37.9,76,30.25,10.0,West,6.9,-,N/A,,Clear,260,2012-12-05 01:52:00
8:52 PM,45.0,37.0,74,30.27,10.0,West,5.8,-,N/A,,Clear,260,2012-12-05 02:52:00
9:52 PM,42.1,35.1,76,30.28,10.0,Calm,Calm,-,N/A,,Clear,0,2012-12-05 03:52:00
10:52 PM,44.1,35.1,71,30.28,10.0,NW,4.6,-,N/A,,Clear,310,2012-12-05 04:52:00
11:52 PM,37.9,33.1,83,30.30,10.0,NW,6.9,-,N/A,,Clear,320,2012-12-05 05:52:00